Weather History for Eagle River, WI

Change the Weather History Date:

Friday, November 23, 2012

  Actual Average Record
Temperature  
Mean Temperature 26 °F -  
Max Temperature 30 °F 30 °F 55 °F (2001)
Min Temperature 21 °F 18 °F 5 °F (2013)
Degree Days  
Heating Degree Days 40    
Moisture  
Dew Point 18 °F    
Average Humidity 79    
Maximum Humidity 86    
Minimum Humidity 74    
Precipitation  
Precipitation 0.00 in - - ()
Sea Level Pressure  
Sea Level Pressure 29.90 in    
Wind  
Wind Speed 17 mph (NW)    
Max Wind Speed 25 mph    
Max Gust Speed 36 mph    
Visibility 5 miles    
Events Snow    
Averages and records for this station are not official NWS values.
T = Trace of Precipitation, MM = Missing Value Source: NWS Daily Summary

Daily Weather History Graph

Daily Weather History Graph

Search for Another Location

Airport:

Trip Planner

Search our weather history database for the weather conditions in past years. The results will help you decide how hot, cold, wet, or windy it might be!

Date:

Astronomy

Nov. 23, 2012 Rise Set
Actual Time 7:08 AM CST 4:18 PM CST
Civil Twilight 6:35 AM CST 4:51 PM CST
Nautical Twilight 5:58 AM CST 5:28 PM CST
Astronomical Twilight 5:23 AM CST 6:03 PM CST
Moon 1:43 PM CST (11/23) 2:15 AM CST (11/23)
Length of Visible Light 10h 15m
Length of Day
9h 09m
Waxing Gibbous, 80% of the Moon is Illuminated
Nov 23
Waxing Gibbous
Nov 28
Full
Dec 6
Last Quarter
Dec 13
New
Dec 19
First Quarter

Hourly Weather History & Observations

Time (CST) Temp. Windchill Dew Point Humidity Pressure Visibility Wind Dir Wind Speed Gust Speed Precip Events Conditions
12:15 AM 30.2 °F 19.3 °F 24.8 °F 80% 29.62 in 7.0 mi West 15.0 mph 23.0 mph N/A Snow Light Snow
12:35 AM 28.4 °F 16.2 °F 23.0 °F 80% 29.61 in 10.0 mi West 17.3 mph 28.8 mph N/A Snow Light Snow
12:55 AM 28.4 °F 17.0 °F 23.0 °F 80% 29.62 in 7.0 mi West 15.0 mph 24.2 mph N/A Snow Light Snow
1:15 AM 28.4 °F 16.6 °F 23.0 °F 80% 29.62 in 5.0 mi West 16.1 mph 25.3 mph N/A Snow Light Snow
1:35 AM 26.6 °F 13.1 °F 23.0 °F 86% 29.62 in 1.8 mi West 19.6 mph 25.3 mph N/A Snow Light Snow
1:55 AM 26.6 °F 13.8 °F 21.2 °F 80% 29.62 in 4.0 mi West 17.3 mph 21.9 mph N/A Snow Light Snow
2:15 AM 26.6 °F 13.8 °F 21.2 °F 80% 29.62 in 1.8 mi West 17.3 mph 23.0 mph N/A Snow Light Snow
2:35 AM 26.6 °F 13.4 °F 21.2 °F 80% 29.62 in 2.5 mi West 18.4 mph 25.3 mph N/A Snow Light Snow
2:55 AM 24.8 °F 11.9 °F 21.2 °F 86% 29.62 in 1.5 mi West 16.1 mph 23.0 mph N/A Snow Light Snow
3:15 AM 26.6 °F 13.4 °F 21.2 °F 80% 29.62 in 1.8 mi West 18.4 mph 24.2 mph N/A Snow Light Snow
3:35 AM 26.6 °F 13.4 °F 21.2 °F 80% 29.62 in 1.8 mi West 18.4 mph 26.5 mph N/A Snow Light Snow
3:55 AM 26.6 °F 14.3 °F 21.2 °F 80% 29.62 in 1.2 mi West 16.1 mph 21.9 mph N/A Snow Light Snow
4:15 AM 26.6 °F 13.8 °F 23.0 °F 86% 29.64 in 1.8 mi West 17.3 mph 25.3 mph N/A Snow Light Snow
4:35 AM 26.6 °F 15.2 °F 23.0 °F 86% 29.64 in 1.8 mi West 13.8 mph 19.6 mph N/A Snow Light Snow
4:55 AM 26.6 °F 16.2 °F 23.0 °F 86% 29.65 in 2.5 mi WNW 11.5 mph - N/A Snow Light Snow
5:15 AM 28.4 °F 17.5 °F 23.0 °F 80% 29.66 in 2.5 mi WNW 13.8 mph 26.5 mph N/A Snow Light Snow
5:35 AM 28.4 °F 16.2 °F 23.0 °F 80% 29.68 in 3.0 mi NW 17.3 mph 21.9 mph N/A Snow Light Snow
5:55 AM 26.6 °F 12.7 °F 21.2 °F 80% 29.69 in 5.0 mi NNW 20.7 mph 29.9 mph N/A Snow Light Snow
6:15 AM 26.6 °F 13.8 °F 19.4 °F 74% 29.71 in 10.0 mi NNW 17.3 mph 28.8 mph N/A Snow Light Snow
6:35 AM 26.6 °F 13.4 °F 19.4 °F 74% 29.72 in 7.0 mi NNW 18.4 mph 25.3 mph N/A Snow Light Snow
6:55 AM 24.8 °F 10.7 °F 19.4 °F 80% 29.74 in 2.5 mi NNW 19.6 mph 27.6 mph N/A Snow Light Snow
7:15 AM 24.8 °F 11.1 °F 19.4 °F 80% 29.75 in 1.8 mi NW 18.4 mph 25.3 mph N/A Snow Light Snow
7:35 AM 24.8 °F 12.4 °F 19.4 °F 80% 29.76 in 2.0 mi NW 15.0 mph 23.0 mph N/A Snow Light Snow
7:55 AM 24.8 °F 10.7 °F 19.4 °F 80% 29.78 in 1.5 mi NW 19.6 mph 28.8 mph N/A Snow Light Snow
8:15 AM 24.8 °F 10.7 °F 19.4 °F 80% 29.79 in 3.0 mi NW 19.6 mph 26.5 mph N/A Snow Light Snow
8:35 AM 24.8 °F 10.7 °F 19.4 °F 80% 29.80 in 1.8 mi NW 19.6 mph 25.3 mph N/A Snow Light Snow
8:55 AM 24.8 °F 10.7 °F 19.4 °F 80% 29.82 in 1.5 mi NNW 19.6 mph 26.5 mph N/A Snow Light Snow
9:15 AM 24.8 °F 11.5 °F 19.4 °F 80% 29.83 in 1.8 mi NW 17.3 mph 28.8 mph N/A Snow Light Snow
9:35 AM 26.6 °F 14.3 °F 19.4 °F 74% 29.84 in 1.5 mi NW 16.1 mph 25.3 mph N/A Snow Light Snow
9:55 AM 24.8 °F 10.7 °F 19.4 °F 80% 29.86 in 0.5 mi NW 19.6 mph 28.8 mph N/A Snow Light Snow
10:15 AM 24.8 °F 10.3 °F 19.4 °F 80% 29.87 in 1.0 mi NW 20.7 mph 29.9 mph N/A Snow Light Snow
10:35 AM 26.6 °F 11.4 °F 19.4 °F 74% 29.88 in 2.0 mi NW 25.3 mph 35.7 mph N/A Snow Light Snow
11:15 AM 24.8 °F 10.7 °F 19.4 °F 80% 29.91 in 1.0 mi NW 19.6 mph 31.1 mph N/A Snow Light Snow
11:35 AM 23.0 °F 8.0 °F 17.6 °F 80% 29.92 in 2.0 mi NW 20.7 mph 26.5 mph N/A Snow Light Snow
11:55 AM 23.0 °F 10.1 °F 19.4 °F 86% 29.93 in 1.8 mi NNW 15.0 mph 24.2 mph N/A Snow Light Snow
12:15 PM 23.0 °F 8.0 °F 17.6 °F 80% 29.94 in 1.5 mi NNW 20.7 mph 31.1 mph N/A Snow Light Snow
12:35 PM 23.0 °F 8.7 °F 17.6 °F 80% 29.95 in 1.8 mi NW 18.4 mph 25.3 mph N/A Snow Light Snow
12:55 PM 23.0 °F 8.0 °F 17.6 °F 80% 29.96 in 1.2 mi NNW 20.7 mph 35.7 mph N/A Snow Light Snow
1:15 PM 23.0 °F 8.7 °F 17.6 °F 80% 29.98 in 1.8 mi NW 18.4 mph 23.0 mph N/A Snow Light Snow
1:35 PM 23.0 °F 8.0 °F 17.6 °F 80% 29.99 in 1.5 mi NNW 20.7 mph 31.1 mph N/A Snow Light Snow
1:55 PM 23.0 °F 8.7 °F 17.6 °F 80% 30.00 in 2.5 mi NNW 18.4 mph 24.2 mph N/A Snow Light Snow
2:15 PM 23.0 °F 6.9 °F 17.6 °F 80% 30.01 in 2.0 mi NW 24.2 mph 29.9 mph N/A Snow Light Snow
2:35 PM 23.0 °F 10.1 °F 17.6 °F 80% 30.01 in 2.5 mi NW 15.0 mph 26.5 mph N/A Snow Light Snow
2:55 PM 23.0 °F 8.3 °F 17.6 °F 80% 30.03 in 1.5 mi NW 19.6 mph 28.8 mph N/A Snow Light Snow
3:15 PM 23.0 °F 12.4 °F 17.6 °F 80% 30.04 in 1.8 mi NW 10.4 mph 26.5 mph N/A Snow Light Snow
3:35 PM 23.0 °F 9.2 °F 17.6 °F 80% 30.05 in 3.0 mi NW 17.3 mph 23.0 mph N/A Snow Light Snow
3:55 PM 23.0 °F 7.2 °F 15.8 °F 74% 30.06 in 1.8 mi NW 23.0 mph 35.7 mph N/A Snow Light Snow
4:15 PM 23.0 °F 9.2 °F 17.6 °F 80% 30.06 in 2.0 mi NNW 17.3 mph 26.5 mph N/A Snow Light Snow
4:35 PM 23.0 °F 8.7 °F 17.6 °F 80% 30.07 in 5.0 mi NW 18.4 mph 25.3 mph N/A Snow Light Snow
4:55 PM 23.0 °F 9.6 °F 17.6 °F 80% 30.07 in 7.0 mi NW 16.1 mph 24.2 mph N/A Snow Light Snow
5:15 PM 23.0 °F 10.6 °F 15.8 °F 74% 30.07 in 5.0 mi NW 13.8 mph 26.5 mph N/A Snow Light Snow
5:35 PM 23.0 °F 10.6 °F 17.6 °F 80% 30.09 in 7.0 mi NW 13.8 mph 25.3 mph N/A Snow Light Snow
5:55 PM 23.0 °F 11.7 °F 15.8 °F 74% 30.09 in 7.0 mi NW 11.5 mph 23.0 mph N/A Snow Light Snow
6:15 PM 21.2 °F 6.4 °F 15.8 °F 80% 30.10 in 10.0 mi NW 18.4 mph 27.6 mph N/A Snow Light Snow
6:35 PM 21.2 °F 8.9 °F 15.8 °F 80% 30.10 in 7.0 mi NW 12.7 mph 24.2 mph N/A Snow Light Snow
6:55 PM 21.2 °F 8.3 °F 15.8 °F 80% 30.10 in 7.0 mi NW 13.8 mph - N/A Snow Light Snow
7:15 PM 21.2 °F 8.9 °F 15.8 °F 80% 30.11 in 7.0 mi NW 12.7 mph 19.6 mph N/A Snow Light Snow
7:35 PM 21.2 °F 8.3 °F 15.8 °F 80% 30.11 in 10.0 mi NW 13.8 mph 19.6 mph N/A Snow Light Snow
7:55 PM 21.2 °F 7.3 °F 15.8 °F 80% 30.11 in 10.0 mi NW 16.1 mph 21.9 mph N/A Snow Light Snow
8:15 PM 21.2 °F 6.8 °F 15.8 °F 80% 30.12 in 10.0 mi NW 17.3 mph - N/A Snow Light Snow
8:35 PM 21.2 °F 7.3 °F 15.8 °F 80% 30.12 in 10.0 mi NW 16.1 mph 20.7 mph N/A Snow Light Snow
8:55 PM 21.2 °F 9.5 °F 15.8 °F 80% 30.11 in 10.0 mi NW 11.5 mph 18.4 mph N/A Snow Light Snow
9:15 PM 21.2 °F 7.8 °F 14.0 °F 74% 30.12 in 10.0 mi NW 15.0 mph - N/A Snow Light Snow
9:35 PM 21.2 °F 10.1 °F 14.0 °F 74% 30.11 in 10.0 mi NW 10.4 mph 18.4 mph N/A Snow Light Snow
9:55 PM 21.2 °F 10.1 °F 14.0 °F 74% 30.11 in 10.0 mi NW 10.4 mph 19.6 mph N/A Snow Light Snow
10:15 PM 21.2 °F 8.9 °F 14.0 °F 74% 30.11 in 10.0 mi NW 12.7 mph 19.6 mph N/A Snow Light Snow
10:35 PM 21.2 °F 9.5 °F 14.0 °F 74% 30.11 in 10.0 mi NW 11.5 mph 19.6 mph N/A Snow Light Snow
10:55 PM 21.2 °F 8.3 °F 14.0 °F 74% 30.12 in 10.0 mi NW 13.8 mph 20.7 mph N/A Snow Light Snow
11:15 PM 21.2 °F 7.8 °F 14.0 °F 74% 30.12 in 10.0 mi NW 15.0 mph 19.6 mph N/A Snow Light Snow
11:35 PM 21.2 °F 6.4 °F 14.0 °F 74% 30.12 in 10.0 mi NW 18.4 mph 23.0 mph N/A Snow Light Snow
11:55 PM 21.2 °F 10.1 °F 14.0 °F 74% 30.12 in 5.0 mi NNW 10.4 mph 18.4 mph N/A Snow Light Snow